# Land Stadt Wetter Temperatur Luftdruck Luftfeuchtigkeit Sichtweite Windgeschwindigkeit Windrichtung Ortszeit
1 no Oslo Clouds -6 974 39 10000 5 35 02.08.2018 14:23
2 ru Surgut Snow 0 987 100 5000 14 220 02.08.2018 14:23
3 is Reykjavik Clouds 3 988 81 10000 26 220 02.08.2018 14:22
4 de Dresden Clouds 1 992 77 10000 2 202 02.08.2018 14:22
5 ca Montreal Rain 5 993 93 4023 7 180 02.08.2018 14:22
6 de Berlin Clouds -1 994 82 10000 11 267 02.08.2018 14:21
7 se Stockholm Clouds -4 994 90 10000 13 340 02.08.2018 14:23
8 fi Helsinki Clouds -9 995 79 10000 15 30 02.08.2018 14:21
9 fr Nizza Clouds 9 996 69 10000 19 330 02.08.2018 14:22
10 ru Moskau Clouds -1 997 89 10000 17 209 02.08.2018 14:22
11 ru Amderma Clouds -13 997 87 10000 33 59 02.08.2018 14:23
12 ru Anadyr Clouds -2 998 92 100 68 130 02.08.2018 14:23
13 it Rom Clouds 12 998 88 10000 8 240 02.08.2018 14:23
14 it Palermo Clouds 15 999 67 10000 20 183 02.08.2018 14:22
15 gl Nuuk Clouds -3 1000 73 6160 18 230 02.08.2018 14:22
16 it Mailand Clear 4 1000 89 10000 4 0 02.08.2018 14:21
17 fi Rovaniemi Clouds -6 1001 86 10000 22 30 02.08.2018 14:21
18 de Hiddensee Clouds 2 1001 58 10000 25 288 02.08.2018 14:21
19 at Wien Rain 5 1001 76 10000 3 322 02.08.2018 14:22
20 de Flensburg Clouds 1 1001 81 10000 33 280 02.08.2018 14:21
21 ua Kiew Clear 3 1002 84 10000 11 230 02.08.2018 14:21
22 us New York Clouds 13 1003 63 10000 6 162 02.08.2018 14:22
23 de Hannover Clear -1 1004 91 10000 13 240 02.08.2018 14:21
24 at Innsbruck Snow 1 1004 90 10000 6 0 02.08.2018 14:23
25 ru Jakutsk Clouds -30 1004 68 10000 21 320 02.08.2018 14:22
26 de Hamburg Clear -1 1004 94 10000 9 260 02.08.2018 14:21
27 de Helgoland Clouds 4 1004 53 10000 33 309 02.08.2018 14:22
28 es Madrid Clouds 6 1005 57 10000 2 241 02.08.2018 14:23
29 de Magdeburg Clouds -1 1005 86 10000 2 121 02.08.2018 14:22
30 ar Ushuaia Clouds 11 1005 58 10000 28 230 02.08.2018 14:22
31 de Emden Clouds 1 1006 94 10000 11 286 02.08.2018 14:21
32 de Nürnberg Clouds 1 1006 88 10000 9 250 02.08.2018 14:21
33 de Bremen Clouds -1 1006 98 7000 13 240 02.08.2018 14:22
34 de Oberstdorf Snow -1 1006 97 97 2 173 02.08.2018 14:21
35 de Stuttgart Clouds 2 1007 89 10000 15 280 02.08.2018 14:22
36 de Kassel Clouds 0 1007 100 10000 15 280 02.08.2018 14:21
37 de München Snow 1 1007 91 10000 2 235 02.08.2018 14:21
38 au Darwin Clouds 27 1007 95 10000 0 0 02.08.2018 14:22
39 bg Sofia Clouds 3 1007 75 10000 11 80 02.08.2018 14:21
40 de Frankfurt Clouds 2 1007 84 10000 22 280 02.08.2018 14:22
41 de Köln Clouds 2 1007 85 10000 7 340 02.08.2018 14:21
42 no Hammerfest Clouds -7 1007 73 10000 6 60 02.08.2018 14:22
43 br Manaus Clouds 27 1008 78 10000 24 20 02.08.2018 14:21
44 de Torfhaus Clouds -5 1008 89 10000 5 274 02.08.2018 14:22
45 bg Warna Clear 9 1008 76 10000 7 70 02.08.2018 14:21
46 pg Port Moresby Clouds 25 1008 94 10000 13 310 02.08.2018 14:21
47 ec San Cristobal Clouds 23 1009 73 10000 28 160 02.08.2018 14:22
48 de Freiburg Snow 2 1009 89 32 5 251 02.08.2018 14:22
49 id Jakarta Clouds 27 1009 80 10000 12 234 02.08.2018 14:22
50 cd Kisangani Clouds 22 1009 98 10000 2 168 02.08.2018 14:23
51 es Palma de Mallorca Clouds 8 1009 88 10000 3 55 02.08.2018 14:22
52 gb Glasgow Rain 3 1009 88 10000 6 160 02.08.2018 14:21
53 fj Suva Clouds 27 1009 83 10000 17 110 02.08.2018 14:21
54 ie Dublin Rain 6 1009 91 10000 3 43 02.08.2018 14:21
55 in Mumbai Haze 24 1010 88 2500 0 0 02.08.2018 14:22
56 ph Manila Clouds 25 1010 72 10000 6 6 02.08.2018 14:21
57 ch Bern Clouds 0 1010 86 10000 6 0 02.08.2018 14:23
58 es Barcelona Clouds 11 1010 33 10000 10 329 02.08.2018 14:22
59 sb Honiara Clouds 28 1010 77 10000 2 97 02.08.2018 14:22
60 mv Male Clouds 28 1011 83 10000 0 0 02.08.2018 14:23
61 gb Manchester Rain 2 1011 79 10000 6 170 02.08.2018 14:21
62 ch Andermatt Snow -6 1011 94 7069 15 333 02.08.2018 14:23
63 de Trier Clouds 1 1011 90 10000 5 287 02.08.2018 14:21
64 ck Avarua Rain 26 1011 83 10000 24 60 02.08.2018 14:22
65 cn Lhasa Clouds 4 1012 47 10000 6 185 02.08.2018 14:22
66 tr Istanbul Clouds 14 1013 72 10000 30 230 02.08.2018 14:23
67 gr Athen Clear 14 1013 71 10000 6 167 02.08.2018 14:22
68 us Denver Clear 21 1013 17 10000 8 322 02.08.2018 14:21
69 do Santo Domingo Clouds 29 1014 72 10000 2 319 02.08.2018 14:21
70 us Chicago Clouds 13 1014 32 10000 10 336 02.08.2018 14:23
71 cl Santiago Clear 26 1014 31 10000 17 230 02.08.2018 14:23
72 fr Paris Clouds 4 1014 84 10000 3 270 02.08.2018 14:22
73 th Bangkok Clouds 23 1014 64 10000 8 359 02.08.2018 14:21
74 au Sydney Clear 21 1014 82 10000 6 20 02.08.2018 14:22
75 gb London Clouds 0 1014 82 10000 8 271 02.08.2018 14:22
76 ru Werchojansk Clouds -41 1015 99 1626 4 253 02.08.2018 14:22
77 au Alice Springs Clear 18 1015 63 10000 0 0 02.08.2018 14:21
78 kr Seoul Clouds 3 1015 72 10000 13 320 02.08.2018 14:21
79 in Nagpur Haze 20 1015 64 3000 7 10 02.08.2018 14:21
80 ae Dubai Clear 23 1015 60 10000 9 140 02.08.2018 14:21
81 ar Buenos Aires Clear 24 1015 59 10000 26 100 02.08.2018 14:22
82 br Rio de Janeiro Clouds 25 1015 80 10000 30 160 02.08.2018 14:22
83 qa Doha Clear 23 1016 79 10000 9 150 02.08.2018 14:23
84 fr Bordeaux Clear 6 1016 94 10000 11 310 02.08.2018 14:21
85 uy Montevideo Clouds 22 1016 64 10000 24 120 02.08.2018 14:22
86 de Braunschweig Clouds -2 1016 88 10000 5 0 02.08.2018 14:21
87 ar Esquel Clear 15 1016 32 10000 14 229 02.08.2018 14:22
88 ad Andorra la Vella Snow -2 1016 87 1724 13 344 02.08.2018 14:22
89 jp Tokio Clouds 7 1016 57 10000 4 0 02.08.2018 14:22
90 sa Riad Clouds 17 1017 25 10000 17 8 02.08.2018 14:21
91 us Death Valley Clouds 31 1017 13 10000 2 46 02.08.2018 14:22
92 us Honolulu Clouds 26 1017 73 10000 0 0 02.08.2018 14:22
93 cn Shanghai Clear 7 1017 55 10000 5 30 02.08.2018 14:21
94 bs Nassau Clouds 26 1018 53 10000 19 360 02.08.2018 14:22
95 et Addis Abeba Clouds 12 1018 48 10000 3 100 02.08.2018 14:23
96 us Miami Clouds 26 1018 56 10000 16 340 02.08.2018 14:23
97 au Perth Clear 15 1019 64 10000 11 140 02.08.2018 14:21
98 tr Ankara Clear 1 1019 86 10000 2 106 02.08.2018 14:23
99 mx Veracruz Clouds 25 1019 78 10000 15 180 02.08.2018 14:21
100 us Tucson Clear 27 1019 27 10000 5 302 02.08.2018 14:21
101 jp Nagasaki Clouds 7 1019 75 10000 4 308 02.08.2018 14:21
102 us Las Vegas Clouds 20 1020 23 10000 8 120 02.08.2018 14:21
103 tr Alanya Clear 12 1020 67 10000 12 339 02.08.2018 14:22
104 es Sevilla Clear 12 1020 53 10000 5 324 02.08.2018 14:22
105 iq Bagdad Clear 10 1020 46 10000 13 320 02.08.2018 14:22
106 eg Kairo Clouds 18 1020 59 10000 7 70 02.08.2018 14:22
107 es Tarifa Clear 13 1020 59 10000 14 345 02.08.2018 14:21
108 us Los Angeles Haze 21 1020 60 4023 0 0 02.08.2018 14:22
109 mn Ulaanbaatar Clear -20 1021 84 10000 7 0 02.08.2018 14:23
110 za Kapstadt Clouds 16 1021 61 10000 5 0 02.08.2018 14:22
111 af Kabul Clear 5 1021 24 10000 3 226 02.08.2018 14:21
112 ma Marrakesch Clouds 12 1021 87 8000 11 30 02.08.2018 14:23
113 mx Mexiko Stadt Clear 22 1022 20 10000 5 330 02.08.2018 14:21
114 ma Casablanca Clouds 12 1022 55 10000 23 21 02.08.2018 14:23
115 ke Nairobi Rain 16 1022 94 10000 9 10 02.08.2018 14:22
116 cn Peking Clear -1 1022 27 10000 14 311 02.08.2018 14:23
117 vn Hanoi Clear 13 1022 51 10000 7 347 02.08.2018 14:21
118 in Jagatsukh Clouds 8 1022 80 3973 9 11 02.08.2018 14:22
119 mg Antananarivo Clouds 14 1023 88 10000 4 0 02.08.2018 14:21
120 pt Lissabon Clouds 11 1023 74 10000 20 350 02.08.2018 14:22
121 nz Wellington Rain 19 1023 84 10000 26 10 02.08.2018 14:23
122 es Las Palmas de Gran Canaria Clouds 19 1024 66 10000 28 20 02.08.2018 14:21
123 pe Cusco Clouds 14 1025 58 10000 19 60 02.08.2018 14:23
124 us Fairbanks Clouds -24 1028 76 10000 0 0 02.08.2018 14:23
125 us Nome Clear -23 1031 77 10000 0 0 02.08.2018 14:23
126 bo La Paz Clouds 13 1033 62 10000 17 90 02.08.2018 14:22
127 bo Potisi Clouds 10 1034 71 10000 28 80 02.08.2018 14:22
128 mn Uliastai Clear -14 1038 52 10000 11 74 02.08.2018 14:23